Location: ??
(31.9467°N, 34.8903°E)
Time: 23:43:08
(UTC+00:00)

X-37B - Visible Passes

Search period start: 09 May 2021 00:00
Search period end: 19 May 2021 00:00
Orbit: 386 x 389 km, 45.0° (Epoch: 08 May)

Date Brightness Start Highest point End Pass type
(mag) Time Alt. Az. Time Alt. Az. Time Alt. Az.
09 May 3.7 18:51:12 10° N 18:51:59 12° N 18:51:59 12° N visible
11 May 3.1 18:30:28 10° NNW 18:32:26 17° NNE 18:32:26 17° NNE visible
12 May 3.3 17:32:41 10° N 17:34:00 12° NNE 17:35:20 10° NE visible
12 May 3.7 19:08:03 10° NW 19:08:48 16° NW 19:08:48 16° NW visible
13 May 2.1 18:09:55 10° NNW 18:12:42 27° NNE 18:12:56 27° NE visible
14 May 2.9 17:11:56 10° NNW 17:14:08 17° NNE 17:16:20 10° ENE visible
14 May 2.8 18:47:52 10° WNW 18:49:21 25° WNW 18:49:21 25° WNW visible
15 May 1.0 17:49:32 10° NW 17:52:39 51° NNE 17:53:33 37° E visible
16 May 2.3 18:27:58 10° WNW 18:30:05 26° WSW 18:30:05 26° WSW visible
17 May 0.7 17:29:20 10° WNW 17:32:30 70° SW 17:34:23 22° SE visible
18 May 3.0 18:08:46 10° WSW 18:10:29 14° SW 18:11:03 13° SSW visible
